Big Rapids, MI

4:38 PM EST on December 08, 2019 (GMT -0500)
Roben-Hood

Weather History for KRQB - August, 2019

Change the Weather History Date:

Thursday, August 8, 2019

  Actual Average Record
Temperature  
Mean Temperature 66 °F -  
Max Temperature 75 °F 80 °F 98 °F (2001)
Min Temperature 56 °F 55 °F 37 °F (1989)
Growing Degree Days 16 (Base 50)    
Moisture  
Dew Point 58 °F    
Average Humidity 73    
Maximum Humidity 96    
Minimum Humidity 42    
Precipitation  
Precipitation 0.00 in - - ()
Sea Level Pressure  
Sea Level Pressure 29.79 in    
Wind  
Wind Speed 8 mph (WNW)    
Max Wind Speed 15 mph    
Max Gust Speed 25 mph    
Visibility 10 miles    
Events Rain    
Averages and records for this station are not official NWS values.
T = Trace of Precipitation, MM = Missing Value Source: NWS Daily Summary

Daily Weather History Graph

Daily Weather History Graph

Search for Another Location

Airport or City:

Astronomy

Aug. 08, 2019 Rise Set
Actual Time 6:38 AM EDT 8:56 PM EDT
Civil Twilight 6:06 AM EDT 9:28 PM EDT
Nautical Twilight 5:26 AM EDT 10:07 PM EDT
Astronomical Twilight 4:42 AM EDT 10:51 PM EDT
Moon 3:31 PM EDT 1:01 AM EDT
Length of Visible Light 15h 21m
Length of Day
14h 17m
First Quarter, 60% of the Moon is Illuminated
Aug 8
First Quarter
Aug 15
Full
Aug 23
Last Quarter
Aug 30
New
Sep 5
First Quarter

Hourly Weather History & Observations

Time (EDT) Temp. Dew Point Humidity Pressure Visibility Wind Dir Wind Speed Gust Speed Precip Events Conditions
12:15 AM 65.8 °F 64.2 °F 94% 29.77 in 10.0 mi West 8.1 mph - N/A Rain Light Rain
12:35 AM 65.3 °F 63.5 °F 94% 29.76 in 7.0 mi WSW 6.9 mph - N/A Rain Heavy Rain
12:55 AM 64.9 °F 63.5 °F 95% 29.75 in 5.0 mi SSW 6.9 mph - N/A Rain Rain
12:56 AM 64.9 °F 63.5 °F 95% 29.75 in 5.0 mi SSW 5.8 mph - N/A Rain Rain
1:19 AM 64.8 °F 63.5 °F 96% 29.73 in 10.0 mi SE 8.1 mph - N/A Rain Rain
1:36 AM 64.8 °F 63.5 °F 96% 29.73 in 10.0 mi SSW 9.2 mph 19.6 mph N/A Rain Light Rain
1:55 AM 64.8 °F 63.5 °F 96% 29.73 in 10.0 mi South 4.6 mph - N/A   Scattered Clouds
1:56 AM 64.8 °F 63.5 °F 96% 29.73 in 10.0 mi SSW 3.5 mph - N/A   Scattered Clouds
2:15 AM 64.4 °F 63.3 °F 96% 29.73 in 10.0 mi WSW 5.8 mph - N/A   Clear
2:38 AM 64.4 °F 63.1 °F 96% 29.73 in 10.0 mi WSW 4.6 mph - N/A   Scattered Clouds
2:56 AM 63.9 °F 62.8 °F 96% 29.73 in 10.0 mi WSW 3.5 mph - N/A   Clear
3:15 AM 63.5 °F 62.2 °F 96% 29.73 in 10.0 mi SW 3.5 mph - N/A   Scattered Clouds
3:35 AM 63.5 °F 62.1 °F 95% 29.73 in 10.0 mi WSW 3.5 mph - N/A   Mostly Cloudy
3:59 AM 64.0 °F 62.6 °F 95% 29.72 in 10.0 mi WSW 5.8 mph - N/A   Overcast
4:17 AM 64.4 °F 62.8 °F 94% 29.73 in 10.0 mi WSW 9.2 mph 16.1 mph N/A   Overcast
4:35 AM 64.4 °F 63.0 °F 95% 29.73 in 10.0 mi West 8.1 mph - N/A   Overcast
4:36 AM 64.4 °F 63.0 °F 95% 29.73 in 10.0 mi West 8.1 mph - N/A   Overcast
4:55 AM 64.8 °F 63.5 °F 96% 29.73 in 10.0 mi West 8.1 mph - N/A   Overcast
4:59 AM 65.1 °F 63.5 °F 94% 29.72 in 10.0 mi West 9.2 mph - N/A   Overcast
5:17 AM 65.1 °F 63.5 °F 94% 29.72 in 2.0 mi WSW 8.1 mph - N/A Rain Heavy Rain
5:35 AM 65.3 °F 63.9 °F 95% 29.72 in 10.0 mi West 8.1 mph - N/A Rain Light Rain
5:55 AM 65.7 °F 64.4 °F 96% 29.72 in 10.0 mi WSW 10.4 mph - N/A Rain Light Rain
6:15 AM 66.2 °F 64.8 °F 95% 29.72 in 10.0 mi West 6.9 mph - N/A   Overcast
6:16 AM 66.2 °F 64.8 °F 95% 29.72 in 10.0 mi West 6.9 mph - N/A   Overcast
6:39 AM 66.4 °F 64.9 °F 95% 29.72 in 10.0 mi West 6.9 mph - N/A Rain Light Rain
6:57 AM 66.6 °F 65.3 °F 96% 29.72 in 10.0 mi West 6.9 mph - N/A   Overcast
7:15 AM 66.6 °F 64.9 °F 95% 29.73 in 10.0 mi WNW 6.9 mph - N/A   Overcast
7:35 AM 66.9 °F 65.1 °F 94% 29.74 in 10.0 mi WNW 6.9 mph - N/A   Overcast
7:36 AM 67.1 °F 65.3 °F 94% 29.74 in 10.0 mi WNW 6.9 mph - N/A   Overcast
7:55 AM 67.1 °F 65.3 °F 94% 29.74 in 10.0 mi WNW 8.1 mph - N/A   Overcast
8:18 AM 67.3 °F 64.8 °F 92% 29.74 in 10.0 mi WNW 8.1 mph - N/A   Overcast
8:36 AM 68.2 °F 65.3 °F 90% 29.74 in 10.0 mi WNW 8.1 mph - N/A   Overcast
8:55 AM 67.6 °F 64.4 °F 89% 29.75 in 10.0 mi WNW 11.5 mph - N/A   Mostly Cloudy
9:19 AM 69.1 °F 64.4 °F 85% 29.76 in 10.0 mi NW 11.5 mph 17.3 mph N/A   Scattered Clouds
9:37 AM 70.0 °F 64.0 °F 81% 29.77 in 10.0 mi WNW 9.2 mph - N/A   Mostly Cloudy
9:55 AM 69.6 °F 63.5 °F 81% 29.76 in 10.0 mi WNW 11.5 mph 17.3 mph N/A   Mostly Cloudy
9:56 AM 69.6 °F 63.3 °F 80% 29.76 in 10.0 mi NW 13.8 mph 17.3 mph N/A   Mostly Cloudy
10:15 AM 70.9 °F 62.1 °F 74% 29.77 in 10.0 mi WNW 11.5 mph 20.7 mph N/A   Scattered Clouds
10:35 AM 71.6 °F 62.1 °F 72% 29.77 in 10.0 mi NW 10.4 mph - N/A   Scattered Clouds
10:39 AM 71.1 °F 61.9 °F 73% 29.77 in 10.0 mi NW 12.7 mph - N/A   Mostly Cloudy
10:57 AM 72.1 °F 61.9 °F 70% 29.77 in 10.0 mi WNW 11.5 mph - N/A   Mostly Cloudy
11:15 AM 72.9 °F 60.6 °F 65% 29.78 in 10.0 mi NW 11.5 mph 18.4 mph N/A   Scattered Clouds
11:16 AM 72.7 °F 60.6 °F 66% 29.78 in 10.0 mi NW 10.4 mph 18.4 mph N/A   Scattered Clouds
11:35 AM 72.0 °F 60.3 °F 67% 29.79 in 10.0 mi NW 11.5 mph 17.3 mph N/A   Scattered Clouds
11:55 AM 72.9 °F 59.4 °F 62% 29.80 in 10.0 mi WNW 10.4 mph - N/A   Mostly Cloudy
12:00 PM 73.2 °F 59.2 °F 61% 29.79 in 10.0 mi NNW 9.2 mph - N/A   Mostly Cloudy
12:17 PM 73.8 °F 58.5 °F 59% 29.80 in 10.0 mi NW 10.4 mph 23.0 mph N/A   Mostly Cloudy
12:36 PM 73.9 °F 57.2 °F 56% 29.80 in 10.0 mi WNW 10.4 mph 16.1 mph N/A   Mostly Cloudy
12:55 PM 74.1 °F 56.8 °F 55% 29.80 in 10.0 mi NW 11.5 mph 18.4 mph N/A   Mostly Cloudy
12:56 PM 74.1 °F 56.7 °F 54% 29.80 in 10.0 mi NW 11.5 mph 18.4 mph N/A   Mostly Cloudy
1:15 PM 75.7 °F 55.9 °F 50% 29.80 in 10.0 mi WNW 10.4 mph - N/A   Mostly Cloudy
1:38 PM 74.1 °F 57.9 °F 57% 29.80 in 10.0 mi NNW 6.9 mph 16.1 mph N/A   Mostly Cloudy
1:55 PM 75.2 °F 55.8 °F 51% 29.80 in 10.0 mi NW 9.2 mph 19.6 mph N/A   Mostly Cloudy
2:15 PM 73.9 °F 54.9 °F 51% 29.81 in 10.0 mi WNW 9.2 mph 18.4 mph N/A   Scattered Clouds
2:16 PM 74.3 °F 54.5 °F 50% 29.81 in 10.0 mi WNW 9.2 mph 18.4 mph N/A   Scattered Clouds
2:35 PM 75.0 °F 53.6 °F 47% 29.81 in 10.0 mi NW 12.7 mph 23.0 mph N/A   Scattered Clouds
2:58 PM 74.1 °F 52.9 °F 47% 29.81 in 10.0 mi NW 12.7 mph 18.4 mph N/A   Scattered Clouds
3:16 PM 73.0 °F 52.7 °F 49% 29.82 in 10.0 mi NW 11.5 mph 18.4 mph N/A   Scattered Clouds
3:35 PM 73.9 °F 52.2 °F 46% 29.82 in 10.0 mi NW 13.8 mph 21.9 mph N/A   Mostly Cloudy
3:36 PM 73.6 °F 52.2 °F 47% 29.82 in 10.0 mi NW 15.0 mph 21.9 mph N/A   Mostly Cloudy
3:55 PM 74.5 °F 52.7 °F 46% 29.82 in 10.0 mi WNW 10.4 mph 21.9 mph N/A   Mostly Cloudy
4:19 PM 74.5 °F 50.2 °F 42% 29.82 in 10.0 mi WNW 11.5 mph 25.3 mph N/A   Scattered Clouds
4:37 PM 73.9 °F 50.5 °F 44% 29.83 in 10.0 mi NNW 13.8 mph 23.0 mph N/A   Scattered Clouds
4:55 PM 72.7 °F 50.0 °F 45% 29.84 in 10.0 mi WNW 11.5 mph 24.2 mph N/A   Scattered Clouds
4:56 PM 72.7 °F 50.0 °F 45% 29.84 in 10.0 mi WNW 11.5 mph 19.6 mph N/A   Scattered Clouds
5:15 PM 73.6 °F 49.8 °F 43% 29.83 in 10.0 mi WNW 10.4 mph 20.7 mph N/A   Scattered Clouds
5:38 PM 73.0 °F 50.4 °F 45% 29.84 in 10.0 mi NW 12.7 mph 19.6 mph N/A   Scattered Clouds
5:56 PM 72.1 °F 49.5 °F 45% 29.84 in 10.0 mi WNW 11.5 mph 21.9 mph N/A   Scattered Clouds
6:16 PM 72.0 °F 50.4 °F 46% 29.84 in 10.0 mi NNW 15.0 mph 21.9 mph N/A   Clear
6:35 PM 71.4 °F 50.2 °F 47% 29.84 in 10.0 mi WNW 10.4 mph 20.7 mph N/A   Clear
6:55 PM 70.9 °F 49.8 °F 47% 29.84 in 10.0 mi WNW 11.5 mph - N/A   Clear
7:00 PM 70.9 °F 49.5 °F 47% 29.84 in 10.0 mi WNW 10.4 mph 20.7 mph N/A   Clear
7:18 PM 70.5 °F 50.0 °F 48% 29.84 in 10.0 mi WNW 8.1 mph - N/A   Clear
7:36 PM 70.3 °F 48.7 °F 46% 29.84 in 10.0 mi WNW 9.2 mph - N/A   Clear
7:55 PM 69.8 °F 49.6 °F 49% 29.85 in 10.0 mi WNW 6.9 mph - N/A   Clear
7:56 PM 69.6 °F 49.6 °F 49% 29.85 in 10.0 mi WNW 5.8 mph - N/A   Clear
8:15 PM 68.4 °F 50.2 °F 52% 29.84 in 10.0 mi WNW 6.9 mph - N/A   Clear
8:20 PM 68.2 °F 50.4 °F 53% 29.84 in 10.0 mi WNW 6.9 mph - N/A   Clear
8:37 PM 67.3 °F 50.5 °F 55% 29.84 in 10.0 mi WNW 4.6 mph - N/A   Clear
8:55 PM 64.6 °F 54.0 °F 68% 29.84 in 10.0 mi Calm Calm - N/A   Clear
8:56 PM 64.6 °F 54.0 °F 68% 29.84 in 10.0 mi Calm Calm - N/A   Clear
9:15 PM 63.3 °F 53.8 °F 71% 29.84 in 10.0 mi West 3.5 mph - N/A   Clear
9:16 PM 63.1 °F 53.8 °F 71% 29.84 in 10.0 mi West 3.5 mph - N/A   Clear
9:35 PM 62.4 °F 53.8 °F 73% 29.85 in 10.0 mi West 3.5 mph - N/A   Clear
9:58 PM 61.3 °F 54.3 °F 78% 29.85 in 10.0 mi West 3.5 mph - N/A   Clear
10:16 PM 59.9 °F 54.7 °F 83% 29.85 in 10.0 mi West 3.5 mph - N/A   Clear
10:35 PM 59.4 °F 54.9 °F 85% 29.86 in 10.0 mi WSW 3.5 mph - N/A   Clear
10:36 PM 59.4 °F 54.9 °F 85% 29.86 in 10.0 mi WSW 3.5 mph - N/A   Clear
10:55 PM 59.9 °F 54.5 °F 82% 29.86 in 10.0 mi Calm Calm - N/A   Clear
11:19 PM 59.2 °F 54.5 °F 84% 29.85 in 10.0 mi West 3.5 mph - N/A   Clear
11:37 PM 59.2 °F 53.8 °F 82% 29.86 in 10.0 mi Calm Calm - N/A   Clear
11:55 PM 56.7 °F 54.3 °F 92% 29.86 in 10.0 mi Calm Calm - N/A   Clear
11:56 PM 56.5 °F 54.1 °F 92% 29.86 in 10.0 mi Calm Calm - N/A   Clear